FW3192 Weather Reports


Display with metric or nautical units.
time (UTC)temp
F
wind
direction
speed
MPH
gust
MPH
rain 1hr
in
rain 24hr
in
rain mn
in
humidity
%
barometer
mb
20260507121531 58 223 14.0 19.0 0.00 0.00 0.00 71 1029.9
20260507120030 57 225 8.0 16.0 0.00 0.00 0.00 75 1029.8
20260507114529 58 207 16.0 21.0 0.00 0.00 0.00 72 1029.8
20260507113028 58 220 16.0 20.0 0.00 0.00 0.00 71 1029.6
20260507111529 58 192 14.0 19.0 0.00 0.00 0.00 66 1029.6
20260507110015 58 205 9.0 14.0 0.00 0.00 0.00 67 1029.6
20260507104515 58 211 7.0 13.0 0.00 0.00 0.00 68 1029.7
20260507103026 58 187 12.0 21.0 0.00 0.00 0.00 69 1029.8
20260507101514 58 193 12.0 18.0 0.00 0.00 0.00 65 1029.8
20260507100013 58 210 10.0 15.0 0.00 0.00 0.00 63 1029.7
20260507094512 58 217 10.0 17.0 0.00 0.00 0.00 65 1029.6
20260507093011 58 211 13.0 17.0 0.00 0.00 0.00 63 1029.5
20260507091514 58 188 12.0 18.0 0.00 0.00 0.00 66 1029.5
20260507090056 58 206 11.0 19.0 0.00 0.00 0.00 68 1029.4
20260507084556 58 217 16.0 20.0 0.00 0.00 0.00 68 1029.2
20260507083055 58 218 12.0 16.0 0.00 0.00 0.00 68 1029.0
20260507081554 58 194 12.0 16.0 0.00 0.00 0.00 67 1029.0
20260507080107 58 237 11.0 16.0 0.00 0.00 0.00 68 1029.0
20260507074553 59 205 10.0 17.0 0.00 0.00 0.00 66 1029.0
20260507073052 59 211 10.0 15.0 0.00 0.00 0.00 63 1029.0
20260507071608 59 216 10.0 14.0 0.00 0.00 0.00 58 1029.0
20260507070039 59 216 8.0 12.0 0.00 0.00 0.00 61 1029.0
20260507064536 59 208 10.0 15.0 0.00 0.00 0.00 60 1028.9
20260507063042 60 212 9.0 14.0 0.00 0.00 0.00 58 1028.9
20260507061535 60 232 13.0 17.0 0.00 0.00 0.00 56 1028.8
20260507060037 60 211 10.0 18.0 0.00 0.00 0.00 57 1028.9
20260507054532 59 208 13.0 16.0 0.00 0.00 0.00 58 1029.0
20260507053054 59 192 9.0 18.0 0.00 0.00 0.00 60 1029.0
20260507051540 60 212 11.0 19.0 0.00 0.00 0.00 57 1029.0
20260507050020 60 228 13.0 17.0 0.00 0.00 0.00 56 1029.0
20260507044517 60 247 14.0 19.0 0.00 0.00 0.00 57 1029.0
20260507043016 59 212 13.0 18.0 0.00 0.00 0.00 59 1029.0
20260507041515 59 230 12.0 17.0 0.00 0.00 0.00 61 1029.1
20260507040015 60 220 14.0 19.0 0.00 0.00 0.00 59 1029.2
20260507034527 60 212 11.0 16.0 0.00 0.00 0.00 56 1029.2
20260507033016 60 248 12.0 17.0 0.00 0.00 0.00 63 1029.3
20260507031510 58 213 11.0 16.0 0.00 0.00 0.00 62 1029.3
20260507030005 57 196 11.0 14.0 0.00 0.00 0.00 65 1029.5
20260507024505 58 228 13.0 17.0 0.00 0.00 0.00 68 1029.7
20260507023004 58 212 9.0 14.0 0.00 0.00 0.00 62 1029.8
20260507021501 58 194 12.0 16.0 0.00 0.00 0.00 60 1029.9
20260507020100 59 196 13.0 17.0 0.00 0.00 0.00 58 1030.0
20260507014614 59 188 12.0 18.0 0.00 0.00 0.00 55 1030.0
20260507013043 59 185 11.0 18.0 0.00 0.00 0.00 51 1030.0
20260507011540 59 200 16.0 20.0 0.00 0.00 0.00 54 1029.8
20260507010036 59 150 13.0 17.0 0.00 0.00 0.00 55 1029.9
20260507004537 58 194 11.0 17.0 0.00 0.00 0.00 59 1029.7
20260507003028 58 165 14.0 17.0 0.00 0.00 0.00 59 1029.7
20260507001526 58 159 14.0 19.0 0.00 0.00 0.00 63 1029.8
20260507000024 57 146 13.0 18.0 0.00 0.00 0.00 63 1029.7
20260506234520 57 135 8.0 14.0 0.00 0.00 0.00 66 1029.6
20260506233017 56 149 7.0 13.0 0.00 0.00 0.00 69 1029.5
20260506231558 55 154 8.0 12.0 0.00 0.00 0.00 71 1029.4
20260506230051 54 155 5.0 7.0 0.00 0.00 0.00 74 1029.2
20260506224533 53 135 4.0 6.0 0.00 0.00 0.00 76 1029.1
20260506223028 52 131 3.0 6.0 0.00 0.00 0.00 77 1029.0
20260506221525 51 137 3.0 5.0 0.00 0.00 0.00 78 1028.7
20260506220033 51 149 3.0 5.0 0.00 0.00 0.00 78 1028.5
20260506214521 50 141 3.0 5.0 0.00 0.00 0.00 78 1028.3
20260506213023 50 145 4.0 6.0 0.00 0.00 0.00 79 1028.1
20260506211514 50 126 3.0 6.0 0.00 0.00 0.00 78 1028.0
20260506210014 50 129 3.0 5.0 0.00 0.00 0.00 78 1027.8
20260506204553 51 144 4.0 7.0 0.00 0.00 0.00 77 1027.6
20260506203049 52 157 6.0 11.0 0.00 0.00 0.00 76 1027.5
20260506201529 52 147 10.0 14.0 0.00 0.00 0.00 74 1027.4
20260506200025 53 140 9.0 13.0 0.00 0.00 0.00 73 1027.3
20260506194523 53 145 4.0 9.0 0.00 0.00 0.00 74 1027.1
20260506193022 53 168 4.0 15.0 0.00 0.00 0.00 75 1027.0
20260506191522 53 197 7.0 13.0 0.00 0.00 0.00 73 1026.9
20260506190024 53 157 4.0 6.0 0.00 0.00 0.00 72 1026.7
20260506184519 53 151 4.0 7.0 0.00 0.00 0.00 73 1026.4
20260506183015 53 143 3.0 5.0 0.00 0.00 0.00 73 1026.4
20260506181502 53 149 4.0 7.0 0.00 0.00 0.00 71 1026.2
20260506180116 54 149 7.0 11.0 0.00 0.00 0.00 69 1026.2
20260506180001 54 149 6.0 11.0 0.00 0.00 0.00 69 1026.2
20260506174601 55 138 7.0 17.0 0.00 0.00 0.00 67 1026.3
20260506173135 54 189 6.0 11.0 0.00 0.00 0.00 70 1026.3
20260506171558 54 153 4.0 7.0 0.00 0.00 0.00 71 1026.3
20260506170059 54 157 6.0 10.0 0.00 0.00 0.00 70 1026.4
20260506164557 54 159 6.0 9.0 0.00 0.00 0.00 70 1026.4
20260506163103 54 162 8.0 13.0 0.00 0.00 0.00 69 1026.4
20260506161539 55 154 9.0 18.0 0.00 0.00 0.00 66 1026.4
20260506160037 55 155 9.0 19.0 0.00 0.00 0.00 64 1026.4
20260506154534 56 204 11.0 21.0 0.00 0.00 0.00 65 1026.2
20260506153033 55 168 9.0 14.0 0.00 0.00 0.00 63 1026.2
20260506151532 55 171 10.0 14.0 0.00 0.00 0.00 62 1026.3
20260506150031 55 161 8.0 13.0 0.00 0.00 0.00 64 1026.1
20260506144529 55 157 10.0 14.0 0.00 0.00 0.00 63 1026.1
20260506143030 55 153 9.0 18.0 0.00 0.00 0.00 64 1026.0
20260506141510 56 170 9.0 19.0 0.00 0.00 0.00 67 1026.0
20260506140009 56 151 11.0 19.0 0.00 0.00 0.00 67 1026.1
20260506134506 56 156 15.0 20.0 0.00 0.00 0.00 64 1025.7
20260506133005 56 171 13.0 19.0 0.00 0.00 0.00 68 1025.6
20260506131506 56 175 11.0 18.0 0.00 0.00 0.00 70 1025.5
20260506130002 57 178 12.0 18.0 0.00 0.00 0.00 70 1025.4
20260506124558 57 187 13.0 19.0 0.00 0.00 0.00 71 1025.2
20260506123058 57 147 10.0 18.0 0.00 0.00 0.00 74 1025.1